Tracking 35331 objects as of 14-Sep-2026
HD Live streaming from Space Station
objects crossing your sky now

FREGAT DEB


FREGAT DEB is no longer on orbit


NORAD ID: 48835
Int'l Code: 2011-037NZ
Launch date: July 18, 2011
Source: Commonwealth of Independent States (former USSR) (CIS)
Launch site: TYURATAM MISSILE AND SPACE COMPLEX (TTMTR)
Decay date: 2023-08-18

Note: This is SATELLITE DEBRIS
Your satellite tracking list
Your tracking list is empty




NASA's NSSDC Master Catalog

Two Line Element Set (TLE):
1 48835U 11037NZ  23225.78642839  .02224994  11237-4  33401-2 0  9994
2 48835  51.4398  83.1005 0126935  19.5742 341.0071 15.90321357117866
Source of the keplerian elements: AFSPC